STARLINK-34791 (65891 NORAD) Tracking and Keplerian Element Data

This shows tracking and keplerian element data for the satellite.

Feedback or suggestion? Click here.




ElementValue
Catalog65891
NameSTARLINK-34791
Epoch Orbit1270
Epoch Day354.22830985
Epoch Year2025
RAAN20.7728
Inclination53.1607
Eccentricity0.0001279
Argument of Perigee78.3034
Mean Anonmoly281.811
Mean Motion15.30210771
Decay Rate0.00017315
L11 65891U 25224K 25354.22830985 .00017315 00000+0 59517-3 0 9996
L22 65891 53.1607 20.7728 0001279 78.3034 281.8110 15.30210771 12701



Live tracking and technical data element details for STARLINK-34791 (NORAD 65891). STARLINK-34791 can be tracked NOW for your location showing map with azimuth and elevation plus other details from your city location.







IsCatalogInMostPopularTable: catalog: 65891, numindb: 3
Update: records affected: 1



GetName: 65891 STARLINK-34791

Hit Count: updated at: Sun, 08 Feb 2026 07:46:17 GMT